Regional Weather Roundup
Issued by NWS

Home | Current Version | Previous Version | Text Only | Print | Product List | Glossary On
Versions: 1 2 3 4 5 6 7 8 9 10 11 12 13 14 15 16 17 18 19 20 21 22 23 24 25 26 27 28 29 30 31 32 33 34 35 36 37 38 39 40 41 42 43 44 45 46 47 48 49 50
000
ASUS43 KTOP 310259
RWRKS

WEATHER ROUNDUP FOR KANSAS
NATIONAL WEATHER SERVICE GOODLAND KS
1000 PM CDT WED JUL 30 2014

NOTE:  "FAIR" INDICATES FEW OR NO CLOUDS BELOW 12,000 FEET WITH NO
SIGNIFICANT WEATHER AND/OR OBSTRUCTIONS TO VISIBILITY.

KSZ001>006-013>018-027>032-041>047-310400-
NORTHWEST KANSAS

CITY           SKY/WX    TMP DP  RH WIND       PRES   REMARKS
GOODLAND       CLOUDY    65  58  78 W6        30.24S
HAYS           CLEAR     64  55  72 S3        30.16R
HILL CITY      PTCLDY    68  53  58 NE3       30.16R
RUSSELL        CLEAR     64  59  83 S8        30.14R
$$

KSZ061>065-074>080-084>089-310400-
SOUTHWEST KANSAS

CITY           SKY/WX    TMP DP  RH WIND       PRES   REMARKS
DODGE CITY     CLEAR     62  56  80 CALM      30.20R
ELKHART          N/A     64  60  87 NE5         N/A
GARDEN CITY    CLEAR     62  59  90 CALM      30.22R
GREAT BEND     CLEAR     64  57  77 S6        30.15R
LIBERAL        CLEAR     64  55  72 NE9       30.23R
$$

KSZ066>073-081>083-090>101-310400-
SOUTHEAST KANSAS

CITY           SKY/WX    TMP DP  RH WIND       PRES   REMARKS
CHANUTE        CLOUDY    66  65  96 N3        30.10R
COFFEYVILLE    CLOUDY    67  65  93 E5        30.08R
HUTCHINSON     CLEAR     61  59  93 NW3       30.14R
NEWTON         CLEAR     64  57  77 N5        30.16R
PARSONS        CLOUDY    68  65  90 CALM      30.10R
WICHITA INTL   MOCLDY    67  63  87 NE5       30.12R
WICHITA JABRA  MOCLDY    64  64 100 CALM      30.12R
WINFIELD       CLOUDY    67  66  97 NE6       30.11R
$$

KSZ007>012-019>026-033>040-048>060-102>105-310400-
NORTHEAST KANSAS

CITY           SKY/WX    TMP DP  RH WIND       PRES   REMARKS
CONCORDIA      CLEAR     69  56  62 N3        30.13R
EMPORIA        PTCLDY    65  62  90 CALM      30.11R
LAWRENCE       PTCLDY    64  59  83 NW3       30.09R
MANHATTAN      CLEAR     65  57  75 CALM      30.11R
OLATHE IND     PTCLDY    69  61  75 SW3       30.10R
OLATHE EXE     PTCLDY    66  60  81 S3        30.09R
SALINA         CLEAR     67  56  67 S6        30.12R
TOPEKA BILLARD CLEAR     65  57  75 NW3       30.10R
TOPEKA FORBES  PTCLDY    64  56  75 CALM      30.10R
$$


USA.gov is the U.S. government's official web portal to all federal, state and local government web resources and services.